Regional Weather Roundup
Issued by NWS

Home | Current Version | Previous Version | Graphics & Text | Print | Product List | Glossary On
Versions: 1 2 3 4 5 6 7 8 9 10 11 12 13 14 15 16 17 18 19 20 21 22 23 24 25 26 27 28 29 30 31 32 33 34 35 36 37 38 39 40 41 42 43 44 45 46 47 48 49 50
000
ASUS43 KLMK 281302
RWRKY
KENTUCKY REGIONAL WEATHER ROUNDUP
NATIONAL WEATHER SERVICE LOUISVILLE KY
900 AM EDT SUN AUG 28 2016

NOTE "FAIR" INDICATES FEW OR NO CLOUDS BELOW 12,000 FEET
WITH NO SIGNIFICANT WEATHER AND/OR OBSTRUCTIONS TO VISIBILITY.

KYZ001>023-026-027-061>063-070>075-281400-
WESTERN AND SOUTH CENTRAL KENTUCKY

CITY           SKY/WX    TMP DP  RH WIND       PRES   REMARKS
PADUCAH        SUNNY     76  73  91 CALM      30.14R
HENDERSON      MOSUNNY   79  73  83 CALM      30.15R
OWENSBORO      SUNNY     79  75  87 SE6       30.17R
HOPKINSVILLE   SUNNY     75  71  88 E5        30.16R
BOWLING GREEN  SUNNY     76  72  87 CALM      30.18R
GLASGOW        SUNNY     74  73  96 CALM      30.18R
$$

KYZ024-025-028>034-038-045-046-053-281400-
NORTH CENTRAL KENTUCKY

CITY           SKY/WX    TMP DP  RH WIND       PRES   REMARKS
LOUISVILLE/SDF MOSUNNY   80  73  79 CALM      30.18R
LOUISVILLE/LOU SUNNY     79  72  79 CALM      30.19R
FORT KNOX      SUNNY     76  71  85 VRB1      30.17R
$$

KYZ035>037-039>044-047>052-055>060-089>105-281400-
NORTHEAST KENTUCKY

CITY           SKY/WX    TMP DP  RH WIND       PRES   REMARKS
LEXINGTON      SUNNY     76  72  87 CALM      30.21R
COVINGTON      MOSUNNY   77  72  84 NE7       30.21R
FRANKFORT      SUNNY     76  71  85 CALM      30.19R
$$

KYZ054-064>069-076>088-106>120-281400-
SOUTHEAST KENTUCKY

CITY           SKY/WX    TMP DP  RH WIND       PRES   REMARKS
JACKSON        SUNNY     77  72  84 CALM      30.23R
LONDON         SUNNY     74  67  78 CALM      30.22R
SOMERSET       SUNNY     72  70  94 CALM      30.22R
MIDDLESBORO    CLOUDY    68  68 100 CALM      30.24S FOG
MONTICELLO     MOSUNNY  N/A N/A N/A MISG      30.22R
$$




USA.gov is the U.S. government's official web portal to all federal, state and local government web resources and services.